Tracking 35334 objects as of 13-Sep-2026
HD Live streaming from Space Station
objects crossing your sky now

SL-12 DEB


SL-12 DEB is no longer on orbit


NORAD ID: 28745
Int'l Code: 2002-037AQ
Launch date: July 25, 2002
Source: Commonwealth of Independent States (former USSR) (CIS)
Launch site: TYURATAM MISSILE AND SPACE COMPLEX (TTMTR)
Decay date: 2005-08-27

Note: This is SATELLITE DEBRIS
Your satellite tracking list
Your tracking list is empty




NASA's NSSDC Master Catalog

Two Line Element Set (TLE):
1 28745U 02037AQ  05238.29302196  .08152486  79231-5  19660-2 0  9993
2 28745 063.9271 200.2191 0056991 090.8974 269.8723 16.24232952  8829
Source of the keplerian elements: AFSPC